GW0648 Weather Reports


Display with metric or nautical units.
time (UTC)temp
F
wind
direction
speed
MPH
gust
MPH
rain 1hr
in
rain 24hr
in
rain mn
in
humidity
%
barometer
mb
20260505082839 46 248 0.0 0.0 0.00 0.00 0.00 92 1012.8
20260505082349 46 248 0.0 0.0 0.00 0.00 0.00 92 1012.8
20260505081838 46 248 0.0 0.0 0.00 0.00 0.00 92 1012.8
20260505081407 46 248 0.0 0.0 0.00 0.00 0.00 91 1012.8
20260505080851 46 248 0.0 0.0 0.00 0.00 0.00 90 1012.7
20260505080325 46 248 0.0 0.0 0.00 0.00 0.00 88 1012.7
20260505075854 46 248 0.0 0.0 0.00 0.00 0.00 88 1012.7
20260505075342 46 248 0.0 0.0 0.00 0.00 0.00 89 1012.6
20260505074831 46 248 0.0 0.0 0.00 0.00 0.00 89 1012.6
20260505074340 46 248 0.0 0.0 0.00 0.00 0.00 88 1012.6
20260505073829 46 248 0.0 0.0 0.00 0.00 0.00 88 1012.7
20260505073343 47 248 0.0 0.0 0.00 0.00 0.00 88 1012.7
20260505072827 47 248 0.0 0.0 0.00 0.00 0.00 88 1012.7
20260505072341 47 248 0.0 0.0 0.00 0.00 0.00 89 1012.7
20260505071850 47 248 0.0 0.0 0.00 0.00 0.00 89 1012.7
20260505071354 47 248 0.0 0.0 0.00 0.00 0.00 89 1012.7
20260505070829 47 248 0.0 0.0 0.00 0.00 0.00 89 1012.7
20260505070354 47 248 0.0 0.0 0.00 0.00 0.00 89 1012.7
20260505065922 47 248 0.0 0.0 0.00 0.00 0.00 89 1012.7
20260505065334 47 248 0.0 0.0 0.00 0.00 0.00 89 1012.8
20260505064859 47 248 0.0 0.0 0.00 0.00 0.00 88 1012.8
20260505064333 47 248 0.0 0.0 0.00 0.00 0.00 87 1012.8
20260505063858 47 248 0.0 0.0 0.00 0.00 0.00 87 1013.0
20260505063330 47 248 0.0 0.0 0.00 0.00 0.00 88 1013.0
20260505062859 47 248 0.0 0.0 0.00 0.00 0.00 88 1013.0
20260505062327 47 248 0.0 0.0 0.00 0.00 0.00 88 1013.2
20260505061857 47 248 0.0 0.0 0.00 0.00 0.00 88 1013.2
20260505061330 48 248 0.0 0.0 0.00 0.00 0.00 89 1013.2
20260505060858 47 248 0.0 0.0 0.00 0.00 0.00 89 1013.2
20260505060352 47 248 0.0 0.0 0.00 0.00 0.00 88 1013.2
20260505055837 48 248 0.0 0.0 0.00 0.00 0.00 87 1013.2
20260505055330 48 248 0.0 0.0 0.00 0.00 0.00 87 1013.1
20260505054835 48 248 0.0 0.0 0.00 0.00 0.00 86 1013.1
20260505054330 48 248 0.0 0.0 0.00 0.00 0.00 86 1013.1
20260505053837 48 248 0.0 0.0 0.00 0.00 0.00 85 1013.1
20260505053331 48 248 0.0 0.0 0.00 0.00 0.00 84 1013.1
20260505052841 48 248 0.0 0.0 0.00 0.00 0.00 83 1013.1
20260505052334 49 248 0.0 0.0 0.00 0.00 0.00 83 1013.2
20260505051838 49 248 0.0 0.0 0.00 0.00 0.00 84 1013.2
20260505051332 50 248 0.0 0.0 0.00 0.00 0.00 83 1013.2
20260505050856 50 248 0.0 0.0 0.00 0.00 0.00 84 1013.2
20260505050331 50 248 0.0 0.0 0.00 0.00 0.00 84 1013.2
20260505041351 52 248 0.0 0.0 0.00 0.00 0.00 78 1013.2
20260505040849 52 248 0.0 0.0 0.00 0.00 0.00 77 1013.3
20260505040333 52 248 0.0 0.0 0.00 0.00 0.00 77 1013.3
20260505035903 52 248 0.0 0.0 0.00 0.00 0.00 76 1013.3
20260505035332 53 248 0.0 0.0 0.00 0.00 0.00 76 1013.3
20260505034842 53 248 0.0 0.0 0.00 0.00 0.00 75 1013.3
20260505034334 53 248 0.0 0.0 0.00 0.00 0.00 74 1013.3
20260505033856 53 248 0.0 0.0 0.00 0.00 0.00 74 1013.4
20260505033344 54 248 0.0 0.0 0.00 0.00 0.00 73 1013.4
20260505032837 54 248 0.0 0.0 0.00 0.00 0.00 73 1013.4
20260505032349 54 248 0.0 0.0 0.00 0.00 0.00 73 1013.4
20260505031842 54 248 0.0 0.0 0.00 0.00 0.00 73 1013.4
20260505031349 54 248 0.0 0.0 0.00 0.00 0.00 73 1013.4
20260505030838 54 248 0.0 0.0 0.00 0.00 0.00 72 1013.4
20260505030402 55 248 0.0 0.0 0.00 0.00 0.00 73 1013.4
20260505025838 55 248 0.0 0.0 0.00 0.00 0.00 71 1013.4
20260505025348 55 248 0.0 0.0 0.00 0.00 0.00 70 1013.3
20260505024840 55 248 0.0 0.0 0.00 0.00 0.00 69 1013.3
20260505024349 56 248 0.0 0.0 0.00 0.00 0.00 68 1013.3
20260505023838 56 248 0.0 0.0 0.00 0.00 0.00 67 1013.3
20260505023348 56 248 0.0 0.0 0.00 0.00 0.00 67 1013.3
20260505022838 56 248 0.0 0.0 0.00 0.00 0.00 66 1013.3
20260505022344 57 248 0.0 0.0 0.00 0.00 0.00 65 1013.3
20260505021837 57 248 0.0 0.0 0.00 0.00 0.00 64 1013.3
20260505021402 57 248 0.0 0.0 0.00 0.00 0.00 64 1013.3
20260505020852 58 248 0.0 0.0 0.00 0.00 0.00 64 1013.2
20260505020328 58 248 0.0 0.0 0.00 0.00 0.00 62 1013.2
20260505015859 58 248 0.0 0.0 0.00 0.00 0.00 61 1013.2
20260505015335 59 248 0.0 0.0 0.00 0.00 0.00 60 1013.1
20260505014843 59 248 0.0 0.0 0.00 0.00 0.00 59 1013.1
20260505014331 60 248 0.0 0.0 0.00 0.00 0.00 58 1013.1
20260505013900 61 248 0.0 0.0 0.00 0.00 0.00 56 1012.8
20260505013331 62 248 0.0 0.0 0.00 0.00 0.00 54 1012.8
20260505012839 63 248 0.0 0.0 0.00 0.00 0.00 52 1012.8
20260505012403 63 248 0.0 0.0 0.00 0.00 0.00 50 1012.7
20260505011911 63 248 0.0 0.0 0.00 0.00 0.00 51 1012.7
20260505011326 64 248 0.0 0.0 0.00 0.00 0.00 48 1012.7
20260505010851 64 248 0.0 0.0 0.00 0.00 0.00 47 1012.7
20260505010343 64 248 0.0 0.0 0.00 0.00 0.00 47 1012.7
20260505005837 65 248 0.0 0.0 0.00 0.00 0.00 46 1012.7
20260505005326 65 248 0.0 0.0 0.00 0.00 0.00 47 1012.5
20260505004857 65 248 0.0 0.0 0.00 0.00 0.00 46 1012.5
20260505004325 65 248 0.0 0.0 0.00 0.00 0.00 46 1012.5
20260505003857 65 248 0.0 0.0 0.00 0.00 0.00 46 1012.2
20260505003333 66 248 0.0 0.0 0.00 0.00 0.00 46 1012.2
20260505002900 66 248 0.0 0.0 0.00 0.00 0.00 45 1012.2
20260505002332 66 248 0.0 0.0 0.00 0.00 0.00 45 1012.2
20260505001857 67 248 0.0 0.0 0.00 0.00 0.00 45 1012.2
20260505001330 67 248 0.0 0.0 0.00 0.00 0.00 44 1012.2
20260505000902 67 248 0.0 0.0 0.00 0.00 0.00 44 1012.1
20260505000331 67 248 0.0 0.0 0.00 0.00 0.00 44 1012.1
20260504235843 68 248 0.0 0.0 0.00 0.00 0.00 44 1012.1
20260504235348 68 248 0.0 0.0 0.00 0.00 0.00 44 1011.7
20260504234858 68 248 0.0 0.0 0.00 0.00 0.00 43 1011.7
20260504234329 69 248 0.0 0.0 0.00 0.00 0.00 43 1011.7
20260504233854 69 248 0.0 0.0 0.00 0.00 0.00 42 1011.7
20260504233337 69 248 0.0 0.0 0.00 0.00 0.00 41 1011.7
20260504232826 69 248 0.0 0.0 0.00 0.00 0.00 41 1011.7
20260504232331 69 248 0.0 0.0 0.00 0.00 0.00 40 1011.6
20260504231900 70 248 0.0 0.0 0.00 0.00 0.00 39 1011.6
20260504231406 70 250 0.0 0.0 0.00 0.00 0.00 39 1011.6
20260504230900 70 256 0.0 0.0 0.00 0.00 0.00 38 1011.5
20260504230325 71 273 0.0 0.0 0.00 0.00 0.00 39 1011.5
20260504225838 71 273 0.0 0.0 0.00 0.00 0.00 38 1011.5
20260504225327 71 195 0.0 0.0 0.00 0.00 0.00 38 1011.3
20260504224852 71 195 0.0 0.0 0.00 0.00 0.00 37 1011.3
20260504224330 71 171 0.0 0.0 0.00 0.00 0.00 38 1011.3
20260504223855 72 192 0.0 0.0 0.00 0.00 0.00 36 1011.4
20260504223330 72 189 0.0 0.0 0.00 0.00 0.00 36 1011.4
20260504222859 72 173 0.0 0.0 0.00 0.00 0.00 36 1011.4
20260504222402 72 184 0.0 0.0 0.00 0.00 0.00 35 1011.6
20260504221856 72 161 0.0 0.0 0.00 0.00 0.00 35 1011.6
20260504221404 73 189 0.0 0.0 0.00 0.00 0.00 34 1011.6
20260504220913 73 211 0.0 0.0 0.00 0.00 0.00 34 1011.6
20260504220340 73 259 0.0 0.0 0.00 0.00 0.00 34 1011.6
20260504215852 73 213 0.0 0.0 0.00 0.00 0.00 33 1011.6
20260504215326 73 256 0.0 0.0 0.00 0.00 0.00 34 1011.3
20260504214852 73 233 0.0 0.0 0.00 0.00 0.00 32 1011.3
20260504214402 73 265 0.0 0.0 0.00 0.00 0.00 31 1011.3
20260504213835 73 171 0.0 0.0 0.00 0.00 0.00 33 1011.2
20260504213358 73 170 0.0 0.0 0.00 0.00 0.00 33 1011.2
20260504212832 74 253 0.0 0.0 0.00 0.00 0.00 32 1011.2
20260504212357 74 257 0.0 0.0 0.00 0.00 0.00 32 1011.3
20260504211830 74 197 0.0 0.0 0.00 0.00 0.00 32 1011.3
20260504211327 74 205 0.0 0.0 0.00 0.00 0.00 31 1011.3
20260504210831 74 261 0.0 0.0 0.00 0.00 0.00 30 1011.4
20260504210401 74 255 0.0 0.0 0.00 0.00 0.00 32 1011.4
20260504205830 74 212 0.0 0.0 0.00 0.00 0.00 30 1011.4
20260504205402 74 229 0.0 0.0 0.00 0.00 0.00 30 1011.6
20260504204835 74 229 0.0 0.0 0.00 0.00 0.00 30 1011.6
20260504204338 74 242 0.0 0.0 0.00 0.00 0.00 29 1011.6
20260504203833 74 230 0.0 0.0 0.00 0.00 0.00 32 1011.6
20260504203336 74 230 0.0 0.0 0.00 0.00 0.00 28 1011.6
20260504202831 74 231 0.0 0.0 0.00 0.00 0.00 28 1011.6
20260504202340 73 132 0.0 0.0 0.00 0.00 0.00 27 1011.6
20260504201909 73 154 0.0 0.0 0.00 0.00 0.00 28 1011.6
20260504201340 73 157 0.0 0.0 0.00 0.00 0.00 28 1011.6
20260504200847 73 152 0.0 0.0 0.00 0.00 0.00 28 1011.7
20260504200344 73 151 0.0 0.0 0.00 0.00 0.00 27 1011.7
20260504195851 73 151 0.0 0.0 0.00 0.00 0.00 28 1011.7
20260504195340 73 153 0.0 0.0 0.00 0.00 0.00 27 1012.1
20260504194849 73 148 0.0 0.0 0.00 0.00 0.00 29 1012.1
20260504194337 73 148 0.0 0.0 0.00 0.00 0.00 28 1012.1
20260504193847 73 144 0.0 0.0 0.00 0.00 0.00 27 1012.2
20260504193344 73 149 0.0 0.0 0.00 0.00 0.00 28 1012.2
20260504192848 73 149 0.0 0.0 0.00 0.00 0.00 28 1012.2
20260504192345 73 151 0.0 0.0 0.00 0.00 0.00 27 1012.2
20260504191854 73 151 0.0 0.0 0.00 0.00 0.00 27 1012.2
20260504191359 73 151 0.0 0.0 0.00 0.00 0.00 27 1012.2
20260504190832 74 138 0.0 0.0 0.00 0.00 0.00 27 1012.3
20260504190400 74 136 0.0 0.0 0.00 0.00 0.00 25 1012.3
20260504185847 74 92 0.0 0.0 0.00 0.00 0.00 26 1012.3
20260504185411 74 78 0.0 0.0 0.00 0.00 0.00 26 1012.6
20260504184904 73 78 0.0 0.0 0.00 0.00 0.00 28 1012.6
20260504184347 74 78 0.0 0.0 0.00 0.00 0.00 25 1012.6
20260504183900 73 232 0.0 0.0 0.00 0.00 0.00 28 1012.7
20260504183334 73 104 0.0 0.0 0.00 0.00 0.00 27 1012.7
20260504182902 73 104 0.0 0.0 0.00 0.00 0.00 28 1012.7
20260504182351 72 104 0.0 0.0 0.00 0.00 0.00 27 1013.0
20260504181859 72 104 0.0 0.0 0.00 0.00 0.00 28 1013.0
20260504181327 73 104 0.0 0.0 0.00 0.00 0.00 28 1013.0
20260504180839 73 74 0.0 0.0 0.00 0.00 0.00 28 1013.3
20260504180343 73 74 0.0 0.0 0.00 0.00 0.00 27 1013.3
20260504175834 72 317 0.0 0.0 0.00 0.00 0.00 27 1013.3
20260504175339 72 317 0.0 0.0 0.00 0.00 0.00 28 1013.7
20260504174833 71 317 0.0 0.0 0.00 0.00 0.00 27 1013.7
20260504174342 71 317 0.0 0.0 0.00 0.00 0.00 31 1013.7
20260504173832 71 317 0.0 0.0 0.00 0.00 0.00 28 1013.9
20260504173343 71 104 0.0 0.0 0.00 0.00 0.00 28 1013.9
20260504172832 70 116 0.0 0.0 0.00 0.00 0.00 29 1013.9
20260504172339 70 117 0.0 0.0 0.00 0.00 0.00 29 1013.9
20260504171833 70 117 0.0 0.0 0.00 0.00 0.00 30 1013.9
20260504171336 70 117 0.0 0.0 0.00 0.00 0.00 31 1013.9
20260504170827 70 117 0.0 0.0 0.00 0.00 0.00 29 1014.2
20260504170336 69 117 0.0 0.0 0.00 0.00 0.00 31 1014.2
20260504160338 66 102 0.0 0.0 0.00 0.00 0.00 36 1014.8
20260504150902 61 138 0.0 0.0 0.00 0.00 0.00 48 1015.5
20260504150330 60 138 0.0 0.0 0.00 0.00 0.00 48 1015.5
20260504141334 54 164 0.0 0.0 0.00 0.00 0.00 60 1015.9
20260504140904 54 164 0.0 0.0 0.00 0.00 0.00 65 1015.9
20260504140332 53 164 0.0 0.0 0.00 0.00 0.00 65 1015.9
20260504130350 45 164 0.0 0.0 0.00 0.00 0.00 83 1015.9
20260504110345 38 120 0.0 0.0 0.00 0.00 0.00 94 1015.2
20260504100333 38 120 0.0 0.0 0.00 0.00 0.00 94 1015.0